Location: Mount Graham
(32.7016°N, 109.8912°W)
Time: 02:26:37
(UTC-07:00)

Cosmos 1340 - Visible Passes

Search period start: 23 August 2014 00:00
Search period end: 02 September 2014 00:00
Orbit: 524 x 529 km, 81.2° (Epoch: 22 August)

Date Brightness Start Highest point End Pass type
(mag) Time Alt. Az. Time Alt. Az. Time Alt. Az.
23 Aug 5.6 19:50:46 10° SW 19:53:49 22° WNW 19:56:52 10° NNW visible
24 Aug 5.5 19:38:55 10° SW 19:42:05 24° WNW 19:45:16 10° NNW visible
25 Aug 5.3 19:27:04 10° SW 19:30:21 26° WNW 19:33:39 10° NNW visible
26 Aug 5.2 19:15:14 10° SW 19:18:37 29° WNW 19:22:02 10° NNW visible
27 Aug 5.2 05:15:58 10° NNE 05:19:22 29° ENE 05:22:46 10° SE visible
28 Aug 5.3 05:04:20 10° NNE 05:07:38 26° ENE 05:10:56 10° SE visible
29 Aug 5.4 04:52:42 10° NNE 04:55:53 24° ENE 04:59:04 10° SE visible
30 Aug 5.5 04:41:05 10° NNE 04:44:08 22° ENE 04:47:11 10° SE visible
31 Aug 5.6 04:29:29 10° NNE 04:32:23 20° ENE 04:35:17 10° SE visible
01 Sep 5.7 04:17:53 10° NNE 04:20:37 18° ENE 04:23:21 10° ESE visible
